DECAYED

STARLINK-5229, 54171 (Decayed)

Orbit data source: Space-Track

STARLINK-5229, 54171 was a payload satellite owned by SpaceX/Seattle (US) in LEO that was launched on Fri, 28 Oct 2022 UTC via an FALCON 9 launch vehicle from the Air Force Western Test Range (AFWTR). Payload-class satellites include a variety of spacecraft equipped with specific instruments for various scientific and technological missions. These include communications satellites like Starlink; space stations such as the ISS; scientific satellites like the Hubble; Earth observation satellites from companies like Planet Labs, Umbra, and HawkEye 360; GPS; miniature CubeSats for education and research; and military/defense satellites.

Not visible in the next 10 days
Identifier
54171, 2022-141Q
Orbit
Decayed
Country
Flag of USUS
Related business
Manufacturer
SpaceX/Seattle
Mission
Decayed Commercial Communications
Bus & Motor
STARLINK, Unknown motor
Mass
305 kg wet, ~290 kg dry
Launch date (UTC)
2022-10-28 (4 years ago)
Launch vehicle
FALCON 9
Launch site
Air Force Western Test Range (AFWTR)
Object type
Payload
Rocket body
Debris
Shape & HBR
Box + 1 Pan, 10.1 m
Radar Cross Section
13.562 m², Large (>1 m²)

Expand to show TLE details & history
Last TLE update: 1 year ago

TLE from 1 year ago
0 STARLINK-5229
1 54171U 22141Q   25135.79272722  .09672722  12453-4  45525-3 0  9990
2 54171  53.2117 243.3277 0005205 285.8314 213.9489 16.42967916141137
Epoch: 2025-05-15T19:01Z
TLE epoch observation values (Epoch: 2025-05-15T19:01:31.631Z)
Latitude
31.26627°
Longitude
-122.64772°
Altitude
162.657 km
Speed
7.811 km/s
True Right ascension
02h 25m 58s
True Declination
31° 06' 00"
Sunlit
Object was in daylight at epoch
Visualization orbit readout
Latitude
Unknown
Longitude
Unknown
Altitude
Unknown
Speed
Unknown
Apparent Right ascension
Unknown
Apparent Declination
Unknown
Sunlit
N/A
Visualization observer readout
Local Sidereal Time
21:31:46
Azimuth
Unknown
Elevation
Unknown
Doppler factor
Unknown
Orbital elements
Apogee altitude
161.581 km
Perigee altitude
154.777 km
Semi-major axis
6,536.316 km
Eccentricity
0.00052
Inclination
53.2117°
RAAN
243.3277°
Arg. of periapsis
285.8314°
True anomaly
213.91561°
Mean anomaly
213.9489°
Eccentric anomaly
213.93225°
Mean motion
4.10718 °/min
Orbital period
87.65 mins
BSTAR
0.00045525
Loading maneuver chart data...
Computing Atmospheric mass density...
Loading historical data...
Loading historical data...
Loading historical data...
Loading historical data...
Loading historical data...
Loading historical data...
Loading historical data...

Documentation

Showing up to 5 results
|